Weather Roundup
Issued by NWS Chicago, IL

Home | Current Version | Previous Version | Text Only | Print | Product List | Glossary Off
Versions: 1 2 3 4 5 6 7 8 9 10 11 12 13 14 15 16 17 18 19 20 21 22 23 24 25 26 27 28 29 30 31 32 33 34 35 36 37 38 39 40 41 42 43 44 45 46 47 48 49 50

000
NZUS59 KLOT 160610
HRRLOT

CHICAGO AREA WEATHER ROUNDUP
NATIONAL WEATHER SERVICE CHICAGO/ROMEOVILLE IL
100 AM CDT TUE SEP 16 2014

NOTE: "FAIR" INDICATES FEW OR NO CLOUDS BELOW 12,000 FEET WITH NO
SIGNIFICANT WEATHER AND/OR OBSTRUCTIONS TO VISIBILITY.

* THESE STATIONS ARE NOT UNDER NWS QUALITY CONTROL. THEY ALSO MAY NOT
  REPORT WEATHER SUCH AS PRECIPITATION OR FOG.

ILZ005-006-012>014-019>023-160700-
NORTHEAST ILLINOIS

CITY           SKY/WX    TMP DP  RH WIND       PRES   REMARKS
OHARE          PTCLDY    51  47  86 NW6       30.18S
6HR MIN TEMP:  51; 6HR MAX TEMP:  57;

MIDWAY         PTCLDY    54  49  83 N9        30.17S
6HR MIN TEMP:  54; 6HR MAX TEMP:  60; 6HR PCP: TRACE;

AURORA         CLEAR     45  43  93 NW5       30.19S
6HR MIN TEMP:  45; 6HR MAX TEMP:  57;

LANSING*       CLEAR     52  49  91 NW5       30.17R
JOLIET*        CLEAR     50  49  93 NW3       30.19S FOG
WAUKEGAN       CLEAR     46  44  93 W5        30.17S
6HR MIN TEMP:  46; 6HR MAX TEMP:  53;

DUPAGE AIRPORT CLEAR     47  44  90 NW6       30.19R
6HR MIN TEMP:  47; 6HR MAX TEMP:  56;

WHEELING       CLEAR     49  45  86 CALM      30.19S
6HR MIN TEMP:  49; 6HR MAX TEMP:  57;

KANKAKEE*      CLOUDY    54  52  93 N3        30.17S
MORRIS*        CLEAR     49  49 100 CALM      30.19R
LEWIS AIRPORT* CLEAR     49  49  98 NW5       30.18R
NORTHERLY IS     N/A     54  47  77 NW8         N/A
$$

WIZ051-052-058>065-066-070>072-160700-
SOUTHEAST WISCONSIN

CITY           SKY/WX    TMP DP  RH WIND       PRES   REMARKS
MILWAUKEE      CLEAR     49  46  90 W3        30.18R
6HR MIN TEMP:  48; 6HR MAX TEMP:  54;

KENOSHA*       CLEAR     46  45  96 NW6       30.18S
RACINE*        CLEAR     48  45  89 W7        30.19S
BURLINGTON     CLEAR     40  40 100 CALM      30.18F FOG
WAUKESHA       CLEAR     45  43  93 W6        30.18F
WEST BEND      CLEAR     46  43  87 W6        30.18R
$$

INZ001>003-010>013-019-020-160700-
NORTHWEST INDIANA

CITY           SKY/WX    TMP DP  RH WIND       PRES   REMARKS
GARY*          PTCLDY    56  51  85 NW8       30.17R
6HR MIN TEMP:  56; 6HR MAX TEMP:  59; 6HR PCP:  0.01;

MICHIGAN CITY* NOT AVBL
RENSSELAER*    NOT AVBL
VALPARAISO     CLOUDY    55  52  89 N6        30.15S
$$

LMZ740>746-160700-
SOUTHERN LAKE MICHIGAN

STATION/POSITION TIME  SKY/WX   TEMP WIND        PRES    VSBY
                                AIR  DIR/SP/G
                 (UTC)          (F)  (DEG/KT/KT) (MB)    (MI)
HARRISON CRIB    0600            54  320/ 12/ 14   N/A
BURNHAM HARBOR   0600            54  320/  7/ 11   N/A
CALUMET HARBOR   0600            53                N/A
BURNS HARBOR     NOT AVBL
MICHIGAN CITY    0600            58  330/ 18/ 21   N/A
$$

ABBREVIATIONS USED IN REMARKS
   TC - TEMPERATURE IN CELSIUS
  WCI - WIND CHILL INDEX
   HX - HEAT INDEX
  VSB - VISIBILITY
$$


USA.gov is the U.S. government's official web portal to all federal, state and local government web resources and services.